Bradshaw AFB, HI

5:36 PM HST on November 21, 2019 (GMT -1000)
Bradshaw Army Air Field

Weather History for PHSF - September, 2019

Change the Weather History Date:

Sunday, September 29, 2019

  Actual Average Record
Temperature  
Mean Temperature 62 °F -  
Max Temperature 74 °F 69 °F 77 °F (2003)
Min Temperature 49 °F 49 °F 44 °F (2017)
Degree Days  
Heating Degree Days 4    
Growing Degree Days 12 (Base 50)    
Moisture  
Dew Point 51 °F    
Average Humidity 77    
Maximum Humidity 93    
Minimum Humidity 35    
Precipitation  
Precipitation 0.00 in - - ()
Sea Level Pressure  
Sea Level Pressure 29.98 in    
Wind  
Wind Speed 5 mph (ESE)    
Max Wind Speed 14 mph    
Max Gust Speed 21 mph    
Visibility 10 miles    
Events      
Averages and records for this station are not official NWS values.
T = Trace of Precipitation, MM = Missing Value Source: NWS Daily Summary

Daily Weather History Graph

Daily Weather History Graph

Search for Another Location

Airport or City:

Astronomy

Sep. 29, 2019 Rise Set
Actual Time 6:12 AM HST 6:12 PM HST
Civil Twilight 5:50 AM HST 6:34 PM HST
Nautical Twilight 5:25 AM HST 6:59 PM HST
Astronomical Twilight 4:59 AM HST 7:25 PM HST
Moon 7:14 AM HST (9/29) 7:26 PM HST (9/29)
Length of Visible Light 12h 43m
Length of Day
11h 59m
New Moon, 2% of the Moon is Illuminated
Sep 29
New Moon
Oct 5
First Quarter
Oct 13
Full
Oct 21
Last Quarter
Oct 27
New

Hourly Weather History & Observations

Time (HST) Temp. Dew Point Humidity Pressure Visibility Wind Dir Wind Speed Gust Speed Precip Events Conditions
12:58 AM 52.7 °F 50.7 °F 93% 29.99 in 10.0 mi SE 3.5 mph - N/A   Clear
1:58 AM 51.3 °F 49.3 °F 93% 29.98 in 10.0 mi East 5.8 mph - N/A   Clear
2:58 AM 50.2 °F 47.5 °F 90% 29.99 in 10.0 mi SSE 4.6 mph - N/A   Clear
3:58 AM 49.5 °F 46.8 °F 90% 29.99 in 10.0 mi East 5.8 mph - N/A   Clear
4:58 AM 50.0 °F 46.4 °F 87% 29.99 in 10.0 mi East 4.6 mph - N/A   Clear
5:58 AM 49.6 °F 45.9 °F 87% 30.00 in 10.0 mi ESE 4.6 mph - N/A   Clear
6:58 AM 53.8 °F 48.4 °F 82% 30.02 in 10.0 mi Calm Calm - N/A   Clear
7:58 AM 61.2 °F 49.5 °F 65% 30.02 in 10.0 mi Calm Calm - N/A   Clear
8:58 AM 64.4 °F 50.4 °F 60% 30.00 in 10.0 mi WSW 3.5 mph - N/A   Clear
9:58 AM 68.0 °F 51.6 °F 56% 30.01 in 10.0 mi North 5.8 mph - N/A   Clear
10:58 AM 70.5 °F 54.7 °F 57% 29.99 in 10.0 mi North 9.2 mph - N/A   Clear
11:58 AM 71.8 °F 50.5 °F 47% 29.97 in 10.0 mi NW 11.5 mph 18.4 mph N/A   Clear
12:58 PM 73.4 °F 47.7 °F 40% 29.93 in 10.0 mi NW 13.8 mph 20.7 mph N/A   Clear
1:59 PM 74.3 °F 45.0 °F 35% 29.91 in 10.0 mi NW 13.8 mph 19.6 mph N/A   Clear
3:58 PM 67.3 °F 54.7 °F 64% 29.95 in 10.0 mi WNW 9.2 mph - N/A   Partly Cloudy
4:58 PM 65.5 °F 54.0 °F 66% 29.95 in 10.0 mi NNW 8.1 mph - N/A   Clear
5:58 PM 61.5 °F 54.3 °F 77% 29.97 in 9.0 mi NW 6.9 mph - N/A   Scattered Clouds
6:53 PM 57.2 °F 53.6 °F 88% 29.98 in 10.0 mi Calm Calm - N/A   Mostly Cloudy
6:58 PM 57.9 °F 54.3 °F 88% 29.97 in 10.0 mi Calm Calm - N/A   Mostly Cloudy
7:03 PM 57.2 °F 53.6 °F 88% 29.98 in 10.0 mi Calm Calm - N/A   Mostly Cloudy
7:13 PM 57.2 °F 53.6 °F 88% 29.98 in 10.0 mi Calm Calm - N/A   Mostly Cloudy
7:18 PM 57.2 °F 53.6 °F 88% 29.98 in 10.0 mi Calm Calm - N/A   Mostly Cloudy
7:43 PM 57.2 °F 53.6 °F 88% 29.97 in 10.0 mi SSE 8.1 mph - N/A   Scattered Clouds
7:58 PM 55.6 °F 52.3 °F 89% 29.97 in 10.0 mi SSE 6.9 mph - N/A   Scattered Clouds
8:58 PM 53.6 °F 49.3 °F 85% 29.98 in 10.0 mi SSE 10.4 mph - N/A   Clear
9:58 PM 51.6 °F 48.2 °F 88% 29.96 in 10.0 mi SE 5.8 mph - N/A   Clear
10:58 PM 52.3 °F 49.6 °F 91% 29.96 in 10.0 mi ESE 9.2 mph - N/A   Clear
11:58 PM 52.0 °F 48.2 °F 87% 29.92 in 10.0 mi SSE 8.1 mph - N/A   Clear